FW0051 Weather Reports


time (UTC)temp
F
wind
direction
speed
knots
gust
knots
rain 1hr
in
rain 24hr
in
rain mn
in
humidity
%
barometer
mb
20260502214517 49 151 1.7 3.5 0.00 0.00 0.00 32 1024.6
20260502213017 48 166 1.7 3.5 0.00 0.00 0.00 37 1024.5
20260502204517 47 158 2.6 7.8 0.00 0.00 0.00 42 1024.9
20260502201517 48 142 4.3 7.0 0.00 0.00 0.00 36 1025.1
20260502194517 49 144 2.6 4.3 0.00 0.00 0.00 37 1024.7
20260502193016 48 135 3.5 6.1 0.00 0.00 0.00 40 1024.7
20260502191517 48 141 2.6 4.3 0.00 0.00 0.00 41 1024.8
20260502190017 48 135 5.2 7.8 0.00 0.00 0.00 44 1024.5
20260502181516 48 145 4.3 7.0 0.00 0.00 0.00 59 1024.5
20260502163015 48 200 3.5 6.1 0.00 0.00 0.00 69 1025.0
20260502161515 48 174 5.2 9.6 0.00 0.00 0.00 71 1025.2
20260502151514 49 183 4.3 13.9 0.00 0.00 0.00 66 1025.3
20260502123020 48 165 5.2 12.2 0.00 0.00 0.00 65 1026.2
20260502121519 47 177 5.2 13.0 0.00 0.00 0.00 66 1026.3
20260502114518 47 169 7.0 10.4 0.00 0.00 0.00 65 1027.1
20260502113019 47 177 6.1 10.4 0.00 0.00 0.00 65 1026.6
20260502111518 47 191 3.5 8.7 0.00 0.00 0.00 68 1026.8
20260502110018 46 182 6.1 14.8 0.00 0.00 0.00 65 1026.7
20260502104518 47 182 1.7 7.8 0.00 0.00 0.00 67 1027.0
20260502103019 46 182 2.6 10.4 0.00 0.00 0.00 69 1027.3
20260502101518 45 185 2.6 8.7 0.00 0.00 0.00 67 1027.4
20260502091517 43 210 3.5 7.8 0.00 0.00 0.00 72 1027.6
20260502071517 40 191 5.2 9.6 0.00 0.00 0.00 70 1027.5
20260502070017 40 194 7.0 10.4 0.00 0.00 0.00 70 1027.6
20260502064516 40 192 5.2 8.7 0.00 0.00 0.00 70 1027.6
20260502063015 39 212 7.0 11.3 0.00 0.00 0.00 72 1027.7
20260502061516 39 217 8.7 11.3 0.00 0.00 0.00 73 1027.5
20260502060016 39 219 8.7 11.3 0.00 0.00 0.00 74 1027.5
20260502053015 38 203 4.3 6.1 0.00 0.00 0.00 75 1027.8
20260502051515 38 194 4.3 7.0 0.00 0.00 0.00 71 1027.8
20260502050016 38 195 3.5 6.1 0.00 0.00 0.00 71 1027.9
20260502044515 38 192 5.2 6.1 0.00 0.00 0.00 71 1027.6
20260502043015 38 188 4.3 6.1 0.00 0.00 0.00 71 1027.4
20260502041514 38 185 5.2 7.0 0.00 0.00 0.00 70 1027.4
20260502040016 38 178 7.0 8.7 0.00 0.00 0.00 69 1027.4
20260502034515 38 172 7.8 9.6 0.00 0.00 0.00 68 1027.4
20260502033015 38 178 7.0 9.6 0.00 0.00 0.00 68 1027.3
20260502030015 39 134 4.3 6.1 0.00 0.00 0.00 74 1027.4
20260502024514 40 137 1.7 3.5 0.00 0.00 0.00 74 1027.5
20260502023014 40 121 2.6 4.3 0.00 0.00 0.00 72 1027.8
20260502021514 40 125 3.5 6.1 0.00 0.00 0.00 70 1027.7
20260502020015 41 128 5.2 7.0 0.00 0.00 0.00 70 1027.9
20260502014513 41 131 4.3 7.0 0.00 0.00 0.00 70 1027.9
20260502013013 42 129 5.2 7.8 0.00 0.00 0.00 67 1027.9
20260502011512 42 126 5.2 7.8 0.00 0.00 0.00 65 1028.0
20260502010014 42 115 5.2 7.8 0.00 0.00 0.00 64 1028.1
20260502004513 42 114 5.2 8.7 0.00 0.00 0.00 64 1027.8
20260502003013 42 107 6.1 8.7 0.00 0.00 0.00 63 1027.8
20260502001518 42 102 7.0 7.8 0.00 0.00 0.00 64 1027.8
20260502000019 42 103 7.8 9.6 0.00 0.00 0.00 65 1027.8
20260501234518 42 103 7.8 9.6 0.00 0.00 0.00 66 1027.9
20260501233018 43 104 7.8 8.7 0.00 0.00 0.00 65 1027.8
20260501231518 43 110 7.0 7.8 0.00 0.00 0.00 66 1028.0
20260501230019 44 131 7.8 9.6 0.00 0.00 0.00 62 1027.8
20260501224517 44 141 5.2 7.8 0.00 0.00 0.00 64 1027.9
20260501223018 44 155 6.1 7.8 0.00 0.00 0.00 64 1028.0
20260501221517 44 157 6.1 7.0 0.00 0.00 0.00 65 1028.1